TimeEST,TemperatureF,Dew PointF,Humidity,Sea Level PressureIn,VisibilityMPH,Wind Direction,Wind SpeedMPH,Gust SpeedMPH,PrecipitationIn,Events,Conditions,WindDirDegrees,DateUTC
12:15 AM,19.4,17.6,93,30.19,10.0,Calm,Calm,-,N/A,,Clear,0,2013-01-04 05:15:00
12:35 AM,19.4,19.4,100,30.18,10.0,Calm,Calm,-,N/A,,Clear,0,2013-01-04 05:35:00
12:55 AM,19.4,17.6,93,30.18,10.0,Calm,Calm,-,N/A,,Clear,0,2013-01-04 05:55:00
1:15 AM,19.4,19.4,100,30.19,10.0,Calm,Calm,-,N/A,,Clear,0,2013-01-04 06:15:00
1:35 AM,19.4,17.6,93,30.18,10.0,Calm,Calm,-,N/A,,Clear,0,2013-01-04 06:35:00
1:55 AM,19.4,19.4,100,30.19,10.0,ESE,3.5,-,N/A,,Clear,120,2013-01-04 06:55:00
2:15 AM,19.4,19.4,100,30.20,10.0,Calm,Calm,-,N/A,,Clear,0,2013-01-04 07:15:00
2:35 AM,19.4,19.4,100,30.21,10.0,Calm,Calm,-,N/A,,Clear,0,2013-01-04 07:35:00
2:55 AM,19.4,19.4,100,30.21,10.0,WSW,3.5,-,N/A,,Clear,240,2013-01-04 07:55:00
3:15 AM,19.4,19.4,100,30.22,10.0,Calm,Calm,-,N/A,,Clear,0,2013-01-04 08:15:00
3:35 AM,19.4,17.6,93,30.21,10.0,ESE,4.6,-,N/A,,Clear,110,2013-01-04 08:35:00
3:55 AM,19.4,19.4,100,30.21,10.0,Calm,Calm,-,N/A,,Clear,0,2013-01-04 08:55:00
4:15 AM,19.4,19.4,100,30.21,10.0,Calm,Calm,-,N/A,,Clear,0,2013-01-04 09:15:00
4:35 AM,17.6,15.8,93,30.21,10.0,South,3.5,-,N/A,,Clear,180,2013-01-04 09:35:00
4:55 AM,19.4,17.6,93,30.21,10.0,Calm,Calm,-,N/A,,Clear,0,2013-01-04 09:55:00
5:15 AM,17.6,15.8,93,30.21,10.0,Calm,Calm,-,N/A,,Clear,0,2013-01-04 10:15:00
5:35 AM,17.6,17.6,100,30.21,10.0,Calm,Calm,-,N/A,,Clear,0,2013-01-04 10:35:00
5:55 AM,17.6,17.6,100,30.21,10.0,Calm,Calm,-,N/A,,Clear,0,2013-01-04 10:55:00
6:55 AM,17.6,15.8,93,30.22,10.0,Calm,Calm,-,N/A,,Clear,0,2013-01-04 11:55:00
7:55 AM,17.6,17.6,100,30.22,10.0,Calm,Calm,-,N/A,,Clear,0,2013-01-04 12:55:00
8:50 AM,26.6,24.8,93,30.22,10.0,Calm,Calm,-,N/A,,Clear,0,2013-01-04 13:50:00
9:50 AM,33.8,28.4,81,30.22,10.0,Calm,Calm,-,N/A,,Clear,0,2013-01-04 14:50:00
11:20 AM,41.0,21.2,45,30.20,10.0,West,12.7,16.1,N/A,,Clear,280,2013-01-04 16:20:00
11:50 AM,41.0,21.2,45,30.19,10.0,West,4.6,-,N/A,,Clear,280,2013-01-04 16:50:00
1:45 PM,44.6,21.2,39,30.13,10.0,SW,9.2,-,N/A,,Clear,230,2013-01-04 18:45:00
2:45 PM,44.6,19.4,37,30.12,10.0,West,9.2,-,N/A,,Clear,260,2013-01-04 19:45:00
3:45 PM,44.6,19.4,37,30.12,10.0,WNW,8.1,-,N/A,,Clear,290,2013-01-04 20:45:00
4:50 PM,42.8,19.4,39,30.13,10.0,West,3.5,-,N/A,,Clear,260,2013-01-04 21:50:00
5:45 PM,37.4,21.2,52,30.14,10.0,NW,8.1,-,N/A,,Clear,320,2013-01-04 22:45:00
6:55 PM,35.6,21.2,56,30.15,10.0,Calm,Calm,-,N/A,,Clear,0,2013-01-04 23:55:00
7:15 PM,33.8,23.0,65,30.16,10.0,WNW,3.5,-,N/A,,Clear,290,2013-01-05 00:15:00
7:35 PM,35.6,19.4,52,30.18,10.0,NW,3.5,-,N/A,,Clear,320,2013-01-05 00:35:00
7:55 PM,33.8,19.4,56,30.18,10.0,NW,5.8,-,N/A,,Clear,310,2013-01-05 00:55:00
8:15 PM,35.6,19.4,52,30.18,10.0,NW,5.8,-,N/A,,Clear,320,2013-01-05 01:15:00
8:35 PM,33.8,19.4,56,30.18,10.0,Calm,Calm,-,N/A,,Clear,0,2013-01-05 01:35:00
8:55 PM,30.2,23.0,75,30.18,10.0,Calm,Calm,-,N/A,,Clear,0,2013-01-05 01:55:00
9:15 PM,28.4,21.2,74,30.18,10.0,Calm,Calm,-,N/A,,Clear,0,2013-01-05 02:15:00
9:35 PM,30.2,21.2,69,30.19,10.0,Calm,Calm,-,N/A,,Clear,0,2013-01-05 02:35:00
9:55 PM,28.4,21.2,74,30.19,10.0,WNW,3.5,-,N/A,,Clear,300,2013-01-05 02:55:00
10:15 PM,26.6,23.0,86,30.19,10.0,Calm,Calm,-,N/A,,Clear,0,2013-01-05 03:15:00
10:35 PM,26.6,21.2,80,30.19,10.0,Calm,Calm,-,N/A,,Clear,0,2013-01-05 03:35:00
10:55 PM,28.4,21.2,74,30.19,10.0,Calm,Calm,-,N/A,,Clear,0,2013-01-05 03:55:00
11:15 PM,24.8,21.2,86,30.19,10.0,Calm,Calm,-,N/A,,Clear,0,2013-01-05 04:15:00
11:35 PM,26.6,21.2,80,30.19,10.0,Calm,Calm,-,N/A,,Clear,0,2013-01-05 04:35:00
11:55 PM,24.8,23.0,93,30.18,10.0,Calm,Calm,-,N/A,,Clear,0,2013-01-05 04:55:00